BOX37GT GMMN-ULLI

Flight info

Callsign BOX37GT
Flight time N/A
Altitude 34000
Route TOLSI UG5 KORIS L27 MAR N871 TOPTU DCT GAI DCT BELUS DCT OMASI N871 MOLUS/N0477F350 DCT MOPAN DCT LOHRE N746 MAG DCT BODLA Z717 EMGAR DCT GARSO M990 LEP N619 SOKVA DCT MONUS T653 DITEL/K0878F350 T653 OBANA OBANA1B
Aircraft B77L/H-SDE1E2E3FGHIJ2J3J4J5M1RWXY/LB1D1

Departure

Time 2026-05-08 06:40
Airport Mohammed V International Airport (GMMN)

Arrival

Time N/A
Airport Pulkovo Airport (ULLI)
Time Latitude Longitude Altitude Speed Heading
2026-05-08 05:58 33.36639 -7.57981 659 ft 0 kts 73°
2026-05-08 06:06 33.36639 -7.57982 659 ft 0 kts 73°
2026-05-08 06:17 33.36636 -7.57994 659 ft 2 kts 73°
2026-05-08 06:17 33.36632 -7.58012 658 ft 2 kts 73°
2026-05-08 06:18 33.36628 -7.58029 658 ft 2 kts 77°
2026-05-08 06:18 33.36626 -7.58046 658 ft 2 kts 97°
2026-05-08 06:18 33.36630 -7.58064 657 ft 2 kts 113°
2026-05-08 06:18 33.36637 -7.58080 657 ft 2 kts 129°
2026-05-08 06:19 33.36648 -7.58092 657 ft 2 kts 146°
2026-05-08 06:19 33.36661 -7.58101 657 ft 1 kts 161°
2026-05-08 06:19 33.36666 -7.58103 657 ft 0 kts 164°
2026-05-08 06:21 33.36660 -7.58101 657 ft 8 kts 163°
2026-05-08 06:22 33.36588 -7.58077 657 ft 10 kts 170°
2026-05-08 06:22 33.36560 -7.58075 657 ft 9 kts 187°
2026-05-08 06:22 33.36495 -7.58108 656 ft 12 kts 206°
2026-05-08 06:22 33.36400 -7.58129 657 ft 15 kts 169°
2026-05-08 06:23 33.36296 -7.58106 659 ft 13 kts 200°
2026-05-08 06:23 33.36253 -7.58195 658 ft 12 kts 253°
2026-05-08 06:23 33.36184 -7.58233 659 ft 13 kts 168°
2026-05-08 06:23 33.36082 -7.58200 660 ft 17 kts 163°
2026-05-08 06:24 33.35955 -7.58157 662 ft 20 kts 164°
2026-05-08 06:24 33.35803 -7.58104 662 ft 21 kts 163°
2026-05-08 06:24 33.35794 -7.58101 662 ft 0 kts 163°
2026-05-08 06:28 33.35789 -7.58099 662 ft 1 kts 163°
2026-05-08 06:28 33.35788 -7.58099 662 ft 0 kts 163°
2026-05-08 06:31 33.35673 -7.58060 662 ft 33 kts 163°
2026-05-08 06:31 33.35480 -7.57994 665 ft 30 kts 164°
2026-05-08 06:31 33.35454 -7.57985 665 ft 0 kts 164°
2026-05-08 06:35 33.35448 -7.57983 666 ft 0 kts 162°
2026-05-08 06:35 33.35444 -7.57982 666 ft 0 kts 163°
2026-05-08 06:36 33.35444 -7.57981 666 ft 0 kts 163°
2026-05-08 06:38 33.35374 -7.57957 666 ft 11 kts 162°
2026-05-08 06:38 33.35302 -7.57952 666 ft 9 kts 196°
2026-05-08 06:38 33.35255 -7.58004 667 ft 9 kts 243°
2026-05-08 06:38 33.35231 -7.58092 667 ft 12 kts 254°
2026-05-08 06:39 33.35205 -7.58207 666 ft 15 kts 256°
2026-05-08 06:39 33.35266 -7.58281 666 ft 18 kts 342°
2026-05-08 06:39 33.35595 -7.58394 663 ft 84 kts 344°
2026-05-08 06:39 33.36393 -7.58666 659 ft 150 kts 343°
2026-05-08 06:40 33.37522 -7.59057 912 ft 180 kts 345°
2026-05-08 06:40 33.38749 -7.59477 1594 ft 189 kts 346°
2026-05-08 06:40 33.40000 -7.59837 2297 ft 190 kts 356°
2026-05-08 06:40 33.41388 -7.59754 2649 ft 206 kts 12°
2026-05-08 06:41 33.42684 -7.58961 2977 ft 222 kts 42°
2026-05-08 06:41 33.43826 -7.57614 3401 ft 240 kts 46°
2026-05-08 06:41 33.45037 -7.56129 3896 ft 258 kts 46°
2026-05-08 06:41 33.46305 -7.54571 4581 ft 266 kts 46°
2026-05-08 06:42 33.47622 -7.52952 5338 ft 273 kts 46°
2026-05-08 06:42 33.48950 -7.51320 6085 ft 277 kts 46°
2026-05-08 06:42 33.50300 -7.49658 6785 ft 284 kts 46°
2026-05-08 06:42 33.51691 -7.47946 7482 ft 290 kts 46°
2026-05-08 06:43 33.53093 -7.46220 8140 ft 295 kts 46°
2026-05-08 06:43 33.54543 -7.44434 8809 ft 300 kts 45°
2026-05-08 06:43 33.56076 -7.42757 9445 ft 305 kts 30°
2026-05-08 06:43 33.58061 -7.41806 10066 ft 307 kts 10°
2026-05-08 06:44 33.60195 -7.41323 10450 ft 320 kts
2026-05-08 06:44 33.62444 -7.40903 10835 ft 337 kts
2026-05-08 06:44 33.64826 -7.40459 11189 ft 353 kts
2026-05-08 06:44 33.67304 -7.39989 11612 ft 368 kts
2026-05-08 06:45 33.69903 -7.39491 12130 ft 381 kts
2026-05-08 06:45 33.72535 -7.38987 12583 ft 395 kts
2026-05-08 06:45 33.75289 -7.38459 13192 ft 405 kts
2026-05-08 06:45 33.78095 -7.37918 14025 ft 409 kts
2026-05-08 06:46 33.80936 -7.37371 14835 ft 415 kts
2026-05-08 06:46 33.83797 -7.36820 15594 ft 422 kts
2026-05-08 06:46 33.86688 -7.36264 16373 ft 427 kts
2026-05-08 06:46 33.89652 -7.35692 17116 ft 433 kts
2026-05-08 06:47 33.92654 -7.35113 17914 ft 437 kts
2026-05-08 06:47 33.95661 -7.34532 18666 ft 442 kts
2026-05-08 06:47 33.98705 -7.33945 19324 ft 449 kts
2026-05-08 06:47 34.01820 -7.33343 20037 ft 454 kts
2026-05-08 06:48 34.04940 -7.32739 20738 ft 459 kts
2026-05-08 06:48 34.08102 -7.32127 21427 ft 464 kts
2026-05-08 06:48 34.11299 -7.31270 22117 ft 474 kts 12°
2026-05-08 06:48 34.14374 -7.29818 22694 ft 485 kts 21°
2026-05-08 06:49 34.17432 -7.27966 23271 ft 492 kts 23°
2026-05-08 06:49 34.20482 -7.26071 23919 ft 496 kts 23°
2026-05-08 06:49 34.23534 -7.24174 24504 ft 501 kts 23°
2026-05-08 06:49 34.26666 -7.22231 25008 ft 507 kts 22°
2026-05-08 06:50 34.29799 -7.20289 25499 ft 513 kts 22°
2026-05-08 06:50 34.32996 -7.18308 26050 ft 518 kts 22°
2026-05-08 06:50 34.36200 -7.16322 26635 ft 521 kts 22°
2026-05-08 06:50 34.39460 -7.14302 27186 ft 526 kts 22°
2026-05-08 06:51 34.42716 -7.12283 27704 ft 531 kts 22°
2026-05-08 06:51 34.46030 -7.10227 28221 ft 537 kts 22°
2026-05-08 06:51 34.49334 -7.08176 28736 ft 541 kts 22°
2026-05-08 06:51 34.52721 -7.06072 29315 ft 545 kts 22°
2026-05-08 06:52 34.56079 -7.03982 30004 ft 546 kts 22°
2026-05-08 06:52 34.59435 -7.01891 30741 ft 544 kts 21°
2026-05-08 06:52 34.62838 -6.99786 31418 ft 543 kts 21°
2026-05-08 06:52 34.66206 -6.97725 31986 ft 543 kts 21°
2026-05-08 06:53 34.69546 -6.95681 32524 ft 543 kts 20°
2026-05-08 06:53 34.72907 -6.93622 33040 ft 543 kts 20°
2026-05-08 06:53 34.76283 -6.91552 33523 ft 544 kts 20°
2026-05-08 06:53 34.79651 -6.89482 34109 ft 542 kts 20°
2026-05-08 06:54 34.83046 -6.87395 34605 ft 540 kts 20°
2026-05-08 06:54 34.86356 -6.85360 34898 ft 543 kts 20°
2026-05-08 06:54 34.93123 -6.81190 34946 ft 542 kts 20°
2026-05-08 06:55 34.99837 -6.77044 34943 ft 541 kts 20°
2026-05-08 06:55 35.06542 -6.72896 34948 ft 540 kts 20°
2026-05-08 06:56 35.13261 -6.68732 34931 ft 540 kts 20°
2026-05-08 06:56 35.19959 -6.64573 34937 ft 542 kts 20°
2026-05-08 06:57 35.26678 -6.60394 34934 ft 543 kts 20°
2026-05-08 06:57 35.33385 -6.56212 34947 ft 541 kts 20°
2026-05-08 06:58 35.40127 -6.52002 34934 ft 541 kts 20°
2026-05-08 06:58 35.46806 -6.47800 34949 ft 542 kts 21°
2026-05-08 06:59 35.53425 -6.43481 34942 ft 541 kts 21°
2026-05-08 06:59 35.60120 -6.39100 34951 ft 543 kts 21°
2026-05-08 07:00 35.66731 -6.34771 34949 ft 542 kts 22°
2026-05-08 07:00 35.73445 -6.30368 34932 ft 543 kts 22°
2026-05-08 07:01 35.80097 -6.26024 34929 ft 542 kts 21°
2026-05-08 07:01 35.86727 -6.21714 34938 ft 541 kts 21°
2026-05-08 07:02 35.93397 -6.17412 34939 ft 541 kts 21°
2026-05-08 07:02 36.00057 -6.13100 34939 ft 541 kts 22°
2026-05-08 07:03 36.06728 -6.08766 34935 ft 541 kts 21°
2026-05-08 07:03 36.13347 -6.04457 34926 ft 539 kts 21°
2026-05-08 07:04 36.20013 -6.00111 34926 ft 544 kts 22°
2026-05-08 07:04 36.26192 -5.94687 34923 ft 548 kts 39°
2026-05-08 07:05 36.31656 -5.87933 34932 ft 555 kts 42°
2026-05-08 07:05 36.37029 -5.81176 34933 ft 553 kts 43°
2026-05-08 07:06 36.42416 -5.74396 34935 ft 553 kts 42°
2026-05-08 07:06 36.47793 -5.67619 34945 ft 551 kts 43°
2026-05-08 07:07 36.53184 -5.60812 34944 ft 550 kts 42°
2026-05-08 07:07 36.58518 -5.54064 34939 ft 549 kts 43°
2026-05-08 07:08 36.63851 -5.47304 34946 ft 549 kts 42°
2026-05-08 07:08 36.69209 -5.40499 34947 ft 548 kts 43°
2026-05-08 07:09 36.74523 -5.33738 34945 ft 549 kts 44°
2026-05-08 07:09 36.79848 -5.26945 34936 ft 546 kts 44°
2026-05-08 07:10 36.85140 -5.20182 34929 ft 547 kts 44°
2026-05-08 07:10 36.90448 -5.13384 34935 ft 544 kts 44°
2026-05-08 07:11 36.95728 -5.06608 34938 ft 544 kts 44°
2026-05-08 07:11 37.00978 -4.99855 34936 ft 544 kts 44°
2026-05-08 07:12 37.06760 -4.93807 34951 ft 538 kts 28°
2026-05-08 07:12 37.13406 -4.89825 34943 ft 532 kts 18°
2026-05-08 07:13 37.20251 -4.86280 34936 ft 532 kts 18°
2026-05-08 07:13 37.27075 -4.82732 34941 ft 531 kts 18°
2026-05-08 07:14 37.33915 -4.79161 34939 ft 532 kts 18°
2026-05-08 07:14 37.40786 -4.75562 34939 ft 534 kts 19°
2026-05-08 07:15 37.47606 -4.71979 34942 ft 531 kts 19°
2026-05-08 07:15 37.54435 -4.68384 34946 ft 533 kts 19°
2026-05-08 07:16 37.61266 -4.64779 34944 ft 531 kts 19°
2026-05-08 07:16 37.68068 -4.61183 34952 ft 532 kts 19°
2026-05-08 07:17 37.74900 -4.57564 34949 ft 533 kts 19°
2026-05-08 07:17 37.81683 -4.53961 34952 ft 530 kts 19°
2026-05-08 07:18 37.88511 -4.50329 34949 ft 531 kts 19°
2026-05-08 07:18 37.95316 -4.46701 34946 ft 530 kts 19°
2026-05-08 07:19 38.02111 -4.43071 34949 ft 531 kts 20°
2026-05-08 07:19 38.08920 -4.39426 34945 ft 531 kts 20°
2026-05-08 07:20 38.15743 -4.35766 34941 ft 533 kts 20°
2026-05-08 07:20 38.22560 -4.32101 34931 ft 532 kts 21°
2026-05-08 07:21 38.29335 -4.28451 34933 ft 531 kts 21°
2026-05-08 07:21 38.36158 -4.24769 34933 ft 533 kts 21°
2026-05-08 07:22 38.43000 -4.21068 34936 ft 532 kts 21°
2026-05-08 07:22 38.49788 -4.17388 34942 ft 534 kts 21°
2026-05-08 07:23 38.56593 -4.13692 34937 ft 531 kts 21°
2026-05-08 07:23 38.63395 -4.09990 34947 ft 532 kts 21°
2026-05-08 07:24 38.70235 -4.06260 34945 ft 533 kts 22°
2026-05-08 07:24 38.76992 -4.02568 34956 ft 531 kts 22°
2026-05-08 07:25 38.83825 -3.98829 34954 ft 531 kts 22°
2026-05-08 07:26 38.93956 -3.93270 34949 ft 532 kts 22°
2026-05-08 07:26 39.00779 -3.89515 34944 ft 531 kts 22°
2026-05-08 07:27 39.07531 -3.85792 34944 ft 531 kts 22°
2026-05-08 07:27 39.14328 -3.82036 34932 ft 529 kts 22°
2026-05-08 07:28 39.21069 -3.78303 34932 ft 530 kts 23°
2026-05-08 07:28 39.27815 -3.74559 34933 ft 528 kts 23°
2026-05-08 07:29 39.34597 -3.70788 34932 ft 529 kts 23°
2026-05-08 07:29 39.41312 -3.67046 34932 ft 527 kts 23°
2026-05-08 07:30 39.48039 -3.63289 34934 ft 528 kts 23°
2026-05-08 07:30 39.54768 -3.59523 34935 ft 526 kts 23°
2026-05-08 07:31 39.61509 -3.55740 34935 ft 526 kts 23°
2026-05-08 07:31 39.68208 -3.51970 34939 ft 527 kts 24°
2026-05-08 07:32 39.74883 -3.48206 34939 ft 526 kts 23°
2026-05-08 07:32 39.81311 -3.43647 34946 ft 524 kts 34°
2026-05-08 07:33 39.87383 -3.38439 34949 ft 524 kts 34°
2026-05-08 07:33 39.93447 -3.33217 34944 ft 524 kts 35°
2026-05-08 07:34 39.99521 -3.27981 34957 ft 523 kts 35°
2026-05-08 07:34 40.05548 -3.22774 34948 ft 522 kts 35°
2026-05-08 07:35 40.11600 -3.17535 34945 ft 524 kts 35°
2026-05-08 07:35 40.17675 -3.12266 34940 ft 522 kts 35°
2026-05-08 07:36 40.23700 -3.07029 34950 ft 525 kts 35°
2026-05-08 07:36 40.29775 -3.01736 34962 ft 522 kts 35°
2026-05-08 07:37 40.35803 -2.96472 34953 ft 521 kts 36°
2026-05-08 07:37 40.41852 -2.91177 34961 ft 522 kts 36°
2026-05-08 07:38 40.47861 -2.85906 34956 ft 520 kts 36°
2026-05-08 07:38 40.53840 -2.80649 34966 ft 521 kts 35°
2026-05-08 07:39 40.59824 -2.75378 34957 ft 519 kts 36°
2026-05-08 07:39 40.65837 -2.70068 34965 ft 521 kts 35°
2026-05-08 07:40 40.71820 -2.64773 34960 ft 517 kts 35°
2026-05-08 07:40 40.77787 -2.59481 34971 ft 520 kts 35°
2026-05-08 07:41 40.83775 -2.54160 34963 ft 515 kts 36°
2026-05-08 07:41 40.89697 -2.48884 34967 ft 518 kts 35°
2026-05-08 07:42 40.95687 -2.43536 34962 ft 516 kts 36°
2026-05-08 07:42 41.01615 -2.38232 34969 ft 517 kts 35°
2026-05-08 07:43 41.07306 -2.32539 34982 ft 515 kts 41°
2026-05-08 07:43 41.12862 -2.26541 34961 ft 514 kts 41°
2026-05-08 07:44 41.18419 -2.20573 34965 ft 512 kts 40°
2026-05-08 07:44 41.23945 -2.14650 34970 ft 513 kts 40°
2026-05-08 07:45 41.29486 -2.08713 34961 ft 512 kts 40°
2026-05-08 07:45 41.35040 -2.02755 34967 ft 514 kts 40°
2026-05-08 07:46 41.40594 -1.96789 34972 ft 514 kts 40°
2026-05-08 07:46 41.46139 -1.90821 34973 ft 516 kts 40°
2026-05-08 07:47 41.51725 -1.84796 34978 ft 516 kts 40°
2026-05-08 07:47 41.57301 -1.78770 34964 ft 515 kts 40°
2026-05-08 07:48 41.62852 -1.72757 34963 ft 516 kts 40°
2026-05-08 07:48 41.68408 -1.66724 34962 ft 515 kts 39°
2026-05-08 07:49 41.73951 -1.60693 34969 ft 516 kts 39°
2026-05-08 07:49 41.79511 -1.54629 34971 ft 516 kts 39°
2026-05-08 07:50 41.85095 -1.48524 34970 ft 518 kts 39°
2026-05-08 07:50 41.90661 -1.42425 34965 ft 515 kts 39°
2026-05-08 07:51 41.96190 -1.36353 34968 ft 519 kts 39°
2026-05-08 07:51 42.01774 -1.30205 34957 ft 517 kts 39°
2026-05-08 07:52 42.07356 -1.24046 34956 ft 518 kts 39°
2026-05-08 07:52 42.12887 -1.17929 34951 ft 516 kts 39°
2026-05-08 07:53 42.18435 -1.11780 34954 ft 519 kts 39°
2026-05-08 07:53 42.23979 -1.05621 34954 ft 515 kts 39°
2026-05-08 07:54 42.29533 -0.99436 34957 ft 517 kts 39°
2026-05-08 07:54 42.35045 -0.93283 34958 ft 514 kts 39°
2026-05-08 07:55 42.40553 -0.87120 34960 ft 515 kts 39°
2026-05-08 07:55 42.45413 -0.80067 34967 ft 517 kts 52°
2026-05-08 07:56 42.49809 -0.72363 34966 ft 515 kts 52°
2026-05-08 07:56 42.54167 -0.64686 34967 ft 518 kts 52°
2026-05-08 07:57 42.58553 -0.56937 34971 ft 517 kts 52°
2026-05-08 07:57 42.62902 -0.49234 34976 ft 518 kts 52°
2026-05-08 07:58 42.67284 -0.41451 34982 ft 517 kts 52°
2026-05-08 07:58 42.71650 -0.33679 34977 ft 517 kts 52°
2026-05-08 07:59 42.75982 -0.25944 34979 ft 517 kts 52°
2026-05-08 07:59 42.80309 -0.18207 34978 ft 516 kts 51°
2026-05-08 08:00 42.84821 -0.10576 34985 ft 518 kts 50°
2026-05-08 08:00 42.89344 -0.02958 34985 ft 517 kts 50°
2026-05-08 08:01 42.93822 0.04619 34984 ft 515 kts 50°
2026-05-08 08:01 42.98290 0.12207 34983 ft 517 kts 50°
2026-05-08 08:02 43.02779 0.19855 34974 ft 516 kts 49°
2026-05-08 08:02 43.07259 0.27511 34966 ft 518 kts 49°
2026-05-08 08:03 43.11759 0.35223 34959 ft 517 kts 49°
2026-05-08 08:03 43.16225 0.42896 34957 ft 517 kts 49°
2026-05-08 08:04 43.20683 0.50577 34947 ft 515 kts 49°
2026-05-08 08:04 43.25150 0.58293 34946 ft 519 kts 49°
2026-05-08 08:05 43.29584 0.65975 34943 ft 514 kts 50°
2026-05-08 08:05 43.34029 0.73692 34935 ft 518 kts 49°
2026-05-08 08:06 43.38479 0.81441 34935 ft 516 kts 49°
2026-05-08 08:06 43.42919 0.89192 34935 ft 517 kts 49°
2026-05-08 08:07 43.47334 0.96922 34934 ft 515 kts 49°
2026-05-08 08:07 43.51764 1.04695 34937 ft 516 kts 49°
2026-05-08 08:08 43.56164 1.12439 34947 ft 514 kts 49°
2026-05-08 08:08 43.58305 1.16215 34950 ft 515 kts 48°